Weather History for West Palm Beach, FL

Change the Weather History Date:

Sunday, November 11, 2012

  Actual Average Record
Temperature  
Mean Temperature 78 °F 74 °F  
Max Temperature 82 °F 81 °F 88 °F (1952)
Min Temperature 73 °F 66 °F 42 °F (1913)
Degree Days  
Heating Degree Days 0 0  
Month to date heating degree days 4 0  
Since 1 July heating degree days 9 1  
Cooling Degree Days 13 9  
Month to date cooling degree days 59 104  
Year to date cooling degree days 3910 3725  
Growing Degree Days 28 (Base 50)    
Moisture  
Dew Point 57 °F    
Average Humidity 52    
Maximum Humidity 64    
Minimum Humidity 39    
Precipitation  
Precipitation 0.00 in 0.19 in 1.76 in (1904)
Month to date precipitation T 1.93  
Year to date precipitation 76.85 56.13  
Snow  
Snow 0.00 in - - ()
Month to date snowfall 0.0  
Since 1 July snowfall 0.0  
Since 1 September snowfall 0.0  
Snow Depth 0.00 in    
Sea Level Pressure  
Sea Level Pressure 30.21 in    
Wind  
Wind Speed 16 mph (East)    
Max Wind Speed 24 mph    
Max Gust Speed 30 mph    
Visibility 10 miles    
Events      
T = Trace of Precipitation, MM = Missing Value Source: NWS Daily Summary

Daily Weather History Graph

Daily Weather History Graph

Search for Another Location

Airport:

Trip Planner

Search our weather history database for the weather conditions in past years. The results will help you decide how hot, cold, wet, or windy it might be!

Date:

Astronomy

Nov. 11, 2012 Rise Set
Actual Time 6:37 AM EST 5:31 PM EST
Civil Twilight 6:12 AM EST 5:55 PM EST
Nautical Twilight 5:44 AM EST 6:23 PM EST
Astronomical Twilight 5:17 AM EST 6:51 PM EST
Moon 4:01 AM EST (11/11) 3:45 PM EST (11/11)
Length of Visible Light 11h 42m
Length of Day
10h 54m
Waning Crescent, 7% of the Moon is Illuminated
Nov 11
Waning Crescent
Nov 13
New
Nov 20
First Quarter
Nov 28
Full
Dec 6
Last Quarter

Hourly Weather History & Observations

Time (EST) Temp. Heat Index Dew Point Humidity Pressure Visibility Wind Dir Wind Speed Gust Speed Precip Events Conditions
12:53 AM 73.0 °F - 57.0 °F 57% 30.21 in 10.0 mi ENE 16.1 mph 23.0 mph N/A   Mostly Cloudy
1:53 AM 73.0 °F - 54.0 °F 51% 30.20 in 10.0 mi East 15.0 mph 23.0 mph N/A   Scattered Clouds
2:53 AM 73.0 °F - 55.0 °F 53% 30.19 in 10.0 mi East 17.3 mph 24.2 mph N/A   Mostly Cloudy
3:53 AM 73.9 °F - 48.9 °F 41% 30.19 in 10.0 mi ENE 12.7 mph - N/A   Scattered Clouds
4:53 AM 73.0 °F - 55.0 °F 53% 30.19 in 10.0 mi East 11.5 mph - N/A   Clear
5:53 AM 73.9 °F - 55.9 °F 53% 30.20 in 10.0 mi East 16.1 mph 23.0 mph N/A   Partly Cloudy
6:53 AM 73.9 °F - 55.9 °F 53% 30.21 in 10.0 mi East 12.7 mph - N/A   Scattered Clouds
7:53 AM 75.9 °F - 54.0 °F 46% 30.23 in 10.0 mi East 11.5 mph 21.9 mph N/A   Scattered Clouds
8:53 AM 78.1 °F - 54.0 °F 43% 30.24 in 10.0 mi East 19.6 mph 24.2 mph N/A   Mostly Cloudy
9:53 AM 79.0 °F - 57.0 °F 47% 30.25 in 10.0 mi East 19.6 mph 24.2 mph N/A   Scattered Clouds
10:53 AM 80.1 °F 80.6 °F 57.9 °F 47% 30.25 in 10.0 mi ENE 20.7 mph 27.6 mph N/A   Scattered Clouds
11:53 AM 81.0 °F 80.7 °F 55.0 °F 41% 30.24 in 10.0 mi East 18.4 mph - N/A   Scattered Clouds
12:53 PM 81.0 °F 80.5 °F 54.0 °F 39% 30.21 in 10.0 mi East 15.0 mph 25.3 mph N/A   Scattered Clouds
1:53 PM 80.1 °F 80.4 °F 57.0 °F 45% 30.20 in 10.0 mi East 17.3 mph 24.2 mph N/A   Scattered Clouds
2:53 PM 80.1 °F 80.9 °F 60.1 °F 50% 30.19 in 10.0 mi ENE 15.0 mph 23.0 mph N/A   Scattered Clouds
3:53 PM 79.0 °F - 60.1 °F 52% 30.19 in 10.0 mi ENE 12.7 mph - N/A   Scattered Clouds
4:53 PM 78.1 °F - 62.1 °F 58% 30.19 in 10.0 mi ENE 16.1 mph 20.7 mph N/A   Mostly Cloudy
5:53 PM 75.9 °F - 57.9 °F 54% 30.20 in 10.0 mi East 16.1 mph - N/A   Mostly Cloudy
6:53 PM 75.9 °F - 60.1 °F 58% 30.20 in 10.0 mi East 13.8 mph 24.2 mph N/A   Mostly Cloudy
7:53 PM 75.9 °F - 60.1 °F 58% 30.22 in 10.0 mi East 20.7 mph 27.6 mph N/A   Scattered Clouds
8:53 PM 75.9 °F - 60.1 °F 58% 30.22 in 10.0 mi East 12.7 mph 23.0 mph N/A   Mostly Cloudy
9:53 PM 75.9 °F - 60.1 °F 58% 30.22 in 10.0 mi East 19.6 mph 25.3 mph N/A   Scattered Clouds
10:53 PM 75.9 °F - 62.1 °F 62% 30.21 in 10.0 mi East 21.9 mph 27.6 mph N/A   Mostly Cloudy
11:53 PM 75.9 °F - 62.1 °F 62% 30.20 in 10.0 mi East 18.4 mph 28.8 mph N/A   Mostly Cloudy